SCP
0 0 0 0 0 0 0 0 0 0 0 0 0 0 0 0 0 0 0 0 0 0 0 0 0 0 0 0 0 0 0 0 0 0 0 0 0 0 0 0 0 0 0
0 0 0 0 0 0 0 0 0 0 0 0 0 0 0 0 0 0 0 0 0 0 0 0 0 0 0 0 0 0 0 0 0 0 0 0 0 0 0 0 0 0 0
0 0 0 0 0 0 0 0 0 0 0 0 0 0 0 0 0 0 0 0 0 0 0 0 0 0 0 0 0 0 0 0 0 0 0 0 0 0 0 0 0 0 0
0 0 0 0 0 0 0 0 0 0 0 0 0 0 0 0 0 0 0 0 0 0 0 0 0 0 0 0 0 0 0 0 0 0 0 0 0 0 0 0 0 0 0
0 0 0 0 0 0 0 0 0 0 0 0 0 0 0 0 0 0 0 0 0 0 0 0 0 0 0 0 0 0 0 0 0 0 0 0 0 0 0 0 0 0 0
0 0 0 0 0 0 0 0 0 0 0 0 0 0 0 0 0 0 0 0 0 0 0 0 0 0 0 0 0 0 0 0 0 0 0 0 0 0 0 0 0 0 0
0 0 0 0 0 0 0 0 0 0 0 0 0 0 0 0 0 0 0 0 0 0 0 0 0 0 0 0 0 0 0 0 0 0 0 0 0 0 0 0 0 0 0
0 0 0 0 0 0 0 0 0 0 0 0 0 0 0 0 0 0 0 0 0 0 0 0 0 0 0 0 0 0 0 0 0 0 0 0 0 0 0 0 0 0 0
0 0 0 0 0 0 0 0 0 0 0 0 0 0 0 0 0 0 0 0 0 0 0 0 0 0 0 0 0 0 0 0 0 0 0 0 0 0 0 0 0 0 0
0 0 0 0 0 0 0 0 0 0 0 0 0 0 0 0 0 0 0 0 0 0 0 0 0 0 0 0 0 0 0 0 0 0 0 0 0 0 0 0 0 0 0
0 0 0 0 0 0 0 0 0 0 0 0 0 0 0 0 0 0 0 0 0 0 0 0 0 0 0 0 0 0 0 0 0 0 0 0 0 0 0 0 0 0 0
0 0 0 0 0 0 0 0 0 0 0 0 0 0 0 0 0 0 0 0 0 0 0 0 0 0 0 0 0 0 0 0 0 0 0 0 0 0 0 0 0 0 0
0 0 0 0 0 0 0 0 0 0 0 0 0 0 0 0 0 0 0 0 0 0 0 0 0 0 0 0 0 0 0 0 0 0 0 0 0 0 0 0 0 0 0
0 0 0 0 0 0 0 0 0 0 0 0 0 0 0 0 0 0 0 0 0 0 0 0 0 0 0 0 0 0 0 0 0 0 0 0 0 0 0 0 0 0 0
0 0 0 0 0 0 0 0 0 0 0 0 0 0 0 0 0 0 0 0 0 0 0 0 0 0 0 0 0 0 0 0 0 0 0 0 0 0 0 0 0 0 0
0 0 0 0 0 0 0 0 0 0 0 0 0 0 0 0 0 0 0 0 0 0 0 0 0 0 0 0 0 0 0 0 0 0 0 0 0 0 0 0 0 0 0
0 0 0 0 0 0 0 0 0 0 0 0 0 0 0 0 0 0 0 0 0 0 0 0 0 0 0 0 0 0 0 0 0 0 0 0 0 0 0 0 0 0 0
0 0 0 0 0 0 0 0 0 0 0 0 0 0 0 0 0 0 0 0 0 0 0 0 0 0 0 0 0 0 0 0 0 0 0 0 0 0 0 0 0 0 0
0 0 0 0 0 0 0 0 0 0 0 0 0 0 0 0 0 0 0 0 0 0 0 0 0 0 0 0 0 0 0 0 0 0 0 0 0 0 0 0 0 0 0
0 0 0 0 0 0 0 0 0 0 0 0 0 0 0 0 0 0 0 0 0 0 0 0 0 0 0 0 0 0 0 0 0 0 0 0 0 0 0 0 0 0 0
0 0 0 0 0 0 0 0 0 0 0 0 0 0 0 0 0 0 0 0 0 0 0 0 0 0 0 0 0 0 0 0 0 0 0 0 0 0 0 0 0 0 0
0 0 0 0 0 0 0 0 0 0 0 0 0 0 0 0 0 0 0 0 0 0 0 0 0 0 0 0 0 0 0 0 0 0 0 0 0 -0 0 0 0 0 0
0 0 0 0 0 0 0 0 0 0 0 0 0 0 0 0 0 0 0 0 0 0 0 0 0 0 0 0 0 0 0 0 0 0 0 0 0 0 0 0 0 0 0
0 0 0 0 0 0 0 0 0 0 0 0 0 0 0 0 0 0 0 0 0 0 0 0 0 0 0 0 0 0 0 0 0 0 0 0 0 0 0 0 0 0 0
0 0 0 0 0 0 0 0 0 0 0 0 0 0 0 0 0 0 0 0 0 0 0 0 0 0 0 0 0 0 0 0 0 0 0 0 0 0 0 0 0 0 0
0 0 0 0 0 0 0 0 0 0 0 0 0 0 0 0 0 0 0 0 0 0 0 0 0 0 0 0 0 0 0 0 0 0 0 0 0 0 0 0 0 0 0
Wind_Speed
15 15 15 15 15 14 14 15 13 12 12 12 11 11 10 10 9 9 9 8 10 10 10 11 13 12 11 11 11 11 12 13 18 16 11 11 12 14 14 12 12 13 14
12 13 15 13 13 15 16 15 13 13 13 13 11 11 11 10 9 10 10 10 10 11 12 12 14 12 13 12 11 13 12 13 16 20 14 12 14 14 13 13 13 13 11
10 13 14 15 16 18 17 15 14 14 13 12 12 11 11 10 9 10 10 10 11 12 12 13 14 13 14 12 13 13 12 13 13 16 16 13 12 11 13 13 14 11 13
11 13 16 18 18 17 16 15 16 15 14 13 12 11 10 9 10 10 9 10 11 12 13 13 14 14 14 14 13 14 13 14 14 14 15 14 12 11 10 11 12 9 11
12 15 18 16 15 14 15 15 14 14 14 12 11 11 10 8 9 9 10 11 12 13 13 13 13 16 19 17 14 12 11 12 12 13 14 13 11 10 10 10 12 10 10
14 16 14 13 14 15 15 14 13 13 12 11 12 11 10 9 14 19 15 11 11 12 12 10 11 13 17 23 26 26 23 17 14 12 12 13 13 12 11 11 11 12 12
14 14 13 13 14 14 14 14 14 14 12 12 12 11 11 13 18 20 21 12 9 8 9 8 9 10 16 10 19 25 23 24 23 16 14 14 15 13 14 15 14 14 13
12 13 12 13 14 12 13 14 14 12 12 12 12 12 11 12 18 19 19 12 7 7 8 9 10 10 11 15 14 14 10 10 15 12 12 14 14 13 13 14 13 13 12
12 13 12 12 13 13 15 15 13 12 12 12 11 12 11 12 17 18 17 6 7 8 8 9 10 10 18 24 16 11 9 10 16 20 21 21 25 24 19 10 8 9 10
13 12 11 12 14 16 16 14 11 11 12 12 11 11 11 11 14 17 16 6 7 7 7 8 13 15 20 23 13 8 10 12 9 9 13 16 14 15 19 10 7 8 8
10 9 9 11 13 13 11 10 10 11 11 11 11 10 10 12 13 17 17 6 6 7 7 5 6 16 20 21 18 8 15 16 7 9 10 9 8 7 7 7 7 8 8
8 9 10 10 10 10 10 10 10 11 11 11 9 9 8 9 12 14 17 15 12 8 6 5 7 17 19 19 14 16 22 17 8 9 9 9 9 8 8 8 9 9 10
8 9 8 8 9 9 10 11 10 10 10 10 9 9 8 7 9 17 17 15 14 7 5 10 13 16 16 11 14 19 15 8 8 9 10 10 9 9 9 8 8 8 9
10 9 7 7 8 9 9 10 10 11 11 10 10 9 7 6 7 6 5 6 9 8 5 8 12 13 11 12 11 9 7 8 9 8 10 9 9 8 8 7 8 7 6
9 8 6 7 7 8 10 10 12 12 13 13 11 9 9 8 11 14 9 7 6 6 4 2 1 3 4 5 5 6 6 7 8 8 9 10 10 9 9 8 7 6 5
9 7 5 5 6 7 8 8 18 17 21 23 17 12 10 11 12 16 15 13 11 9 4 1 2 3 5 6 7 7 7 7 8 9 9 9 10 10 9 8 7 6 6
9 8 5 6 6 7 8 9 8 13 20 21 21 19 15 14 15 15 13 11 9 7 3 2 3 4 5 5 6 7 7 8 8 8 9 9 9 9 9 9 8 7 7
9 10 8 6 6 7 8 8 8 8 9 10 15 20 19 18 16 15 13 8 4 3 3 3 3 4 4 5 6 6 7 7 7 8 8 8 9 9 9 9 8 8 8
8 7 6 6 6 7 8 8 8 9 8 7 5 10 18 17 17 15 11 5 4 4 4 4 3 3 4 5 6 6 6 7 8 8 8 9 9 9 9 9 9 13 10
7 12 10 6 6 6 7 8 8 8 8 8 8 8 8 8 6 6 5 4 4 4 4 4 3 3 3 4 5 6 6 7 7 7 7 8 8 8 9 10 10 10 9
7 8 13 8 6 6 7 8 8 8 8 8 7 10 15 9 8 7 6 5 5 5 4 4 3 3 3 4 4 5 7 7 6 6 7 8 9 9 8 9 9 9 9
7 6 6 6 5 6 7 7 8 8 8 8 6 8 18 9 6 6 6 6 5 4 4 3 3 3 3 4 5 5 6 6 6 6 7 8 8 9 9 9 9 9 9
6 7 6 6 5 9 9 7 8 8 8 7 7 7 8 8 7 7 6 5 5 4 4 3 3 3 3 4 4 5 5 6 6 6 7 8 8 9 9 10 11 12 11
7 7 7 6 6 6 7 7 8 8 8 8 7 7 7 7 7 7 6 5 5 4 4 3 3 4 5 5 4 4 5 7 6 5 7 6 8 8 9 9 10 12 11
7 7 6 6 6 6 7 7 8 8 8 8 8 7 7 7 7 7 6 5 6 5 4 3 2 3 4 6 6 6 11 12 9 6 4 4 7 8 9 10 10 11 11
7 7 6 5 6 6 7 7 8 8 8 8 7 7 7 7 7 7 6 6 5 4 4 3 2 3 4 5 7 10 13 11 10 10 5 4 6 8 9 8 11 11 11
Wind_Direction
207 206 209 206 205 203 204 204 200 196 194 198 199 203 210 215 218 223 233 235 241 251 252 253 257 258 261 261 260 259 259 260 272 281 277 278 274 274 277 275 273 273 276
206 205 211 208 202 205 209 206 199 197 197 199 199 204 211 216 218 223 236 242 242 251 256 257 261 263 263 264 263 264 264 262 268 279 281 278 273 272 272 272 275 275 271
203 207 210 210 208 210 210 204 199 198 197 197 198 205 211 215 220 226 234 242 245 250 254 257 261 263 266 265 265 267 267 266 264 271 278 277 274 271 272 272 271 269 271
207 212 216 216 214 213 210 204 201 198 196 196 199 205 209 214 223 230 234 242 248 252 254 255 258 259 263 266 268 266 266 266 265 267 272 274 273 269 267 274 276 268 270
212 218 223 220 216 214 210 206 201 198 197 194 196 203 208 213 222 227 235 242 246 253 256 255 256 261 265 275 280 277 271 270 271 270 274 277 278 279 276 275 276 279 270
218 226 225 218 215 214 211 205 200 198 193 188 195 200 209 218 235 244 247 239 242 249 258 260 258 270 278 284 290 293 291 288 288 285 286 285 286 283 281 276 277 278 277
225 231 225 219 219 215 209 205 202 196 189 190 196 201 214 226 238 250 259 260 251 250 254 262 269 270 286 282 286 289 289 289 293 294 291 287 287 283 279 274 267 263 265
231 233 226 218 220 214 209 209 204 195 190 192 197 203 214 229 237 249 259 263 258 252 250 254 264 270 274 282 278 280 271 272 283 284 273 276 280 281 274 271 270 267 263
239 237 227 217 216 212 212 209 200 192 191 194 196 199 210 228 236 246 257 253 258 256 253 257 264 267 282 294 298 294 288 284 296 298 299 303 304 305 302 295 284 276 275
248 244 230 216 215 216 215 208 198 193 194 192 197 200 208 219 230 241 251 246 256 263 261 258 273 284 293 301 304 301 299 296 294 296 300 301 297 294 298 293 283 276 276
259 248 233 221 219 219 213 202 193 193 190 192 197 200 206 216 228 239 246 237 243 261 269 264 266 292 299 306 313 306 298 310 317 305 300 296 292 286 280 270 258 253 254
262 250 238 223 216 212 206 200 191 190 190 192 195 201 209 218 225 234 242 246 250 251 262 265 274 294 305 313 316 307 314 325 317 306 304 306 306 302 293 282 269 255 245
269 256 244 225 212 203 200 197 190 191 194 194 194 202 207 204 219 230 235 244 256 258 255 275 292 304 313 315 308 313 324 319 306 308 309 307 303 297 296 292 283 268 255
274 266 245 223 214 204 201 198 197 197 198 196 195 200 201 199 199 209 221 242 254 265 275 285 298 308 309 305 309 315 310 303 310 308 306 304 304 304 304 303 300 297 281
277 268 248 226 214 209 209 209 207 210 205 197 196 191 189 200 208 203 196 210 215 231 243 231 272 298 301 303 303 302 304 310 314 311 309 311 313 313 312 311 302 300 287
281 270 248 229 216 210 211 219 225 220 223 218 207 193 199 199 198 204 211 223 237 249 248 225 272 288 296 304 309 312 311 312 314 315 314 313 314 314 313 312 308 303 297
274 271 252 232 219 213 210 212 220 225 225 221 213 202 196 197 199 202 211 221 236 248 227 229 257 275 288 297 301 305 306 308 309 310 312 313 314 314 314 315 316 312 305
277 271 261 238 222 216 212 211 209 207 207 211 214 208 202 201 202 205 209 205 213 208 196 224 247 265 281 293 299 303 304 308 310 312 313 313 315 316 315 316 315 312 308
282 273 261 243 227 218 212 208 207 208 209 199 184 204 205 204 204 205 201 185 191 205 211 225 238 257 275 288 295 299 300 303 306 311 313 315 317 317 315 315 313 315 316
283 280 276 253 231 219 210 207 205 205 205 198 194 191 187 183 181 188 184 171 190 204 210 222 236 251 271 282 291 297 301 302 306 309 313 316 317 315 314 314 314 313 309
286 285 281 264 230 216 209 207 205 205 204 202 198 192 185 182 184 184 186 189 195 201 205 214 231 253 267 280 286 293 299 302 304 308 313 316 318 318 316 313 312 311 309
282 278 267 254 233 217 212 206 204 206 205 201 189 194 196 184 179 182 189 194 192 192 194 201 221 240 256 273 285 293 298 301 304 309 313 316 317 319 320 320 320 320 317
275 274 266 253 235 225 219 206 203 203 201 197 187 186 188 180 181 183 185 183 179 187 192 199 220 247 262 273 278 280 286 293 295 299 309 317 321 324 325 325 325 326 325
271 265 259 248 231 219 211 202 199 199 197 192 188 189 188 178 177 178 174 170 173 180 187 198 218 248 276 291 287 286 281 285 284 285 300 312 320 323 326 328 328 329 328
271 264 254 240 227 216 210 202 196 194 193 191 189 188 184 175 172 170 165 164 169 178 188 198 217 250 280 295 296 295 303 314 323 329 317 320 321 322 326 330 332 334 336
275 266 252 234 220 212 205 199 194 190 188 188 186 182 178 174 170 166 162 162 167 174 182 195 219 252 287 295 296 304 315 326 335 346 354 326 327 332 339 338 338 342 344